Weather History for The Dalles, OR

Change the Weather History Date:

Friday, May 17, 2013

  Actual Average Record
Temperature  
Mean Temperature 60 °F -  
Max Temperature 70 °F 74 °F 98 °F (2008)
Min Temperature 52 °F 48 °F 37 °F (1974)
Degree Days  
Heating Degree Days 5    
Growing Degree Days 10 (Base 50)    
Moisture  
Dew Point 43 °F    
Average Humidity 59    
Maximum Humidity 83    
Minimum Humidity 36    
Precipitation  
Precipitation 0.10 in - - ()
Sea Level Pressure  
Sea Level Pressure 29.98 in    
Wind  
Wind Speed 13 mph (WNW)    
Max Wind Speed 23 mph    
Max Gust Speed 31 mph    
Visibility 10 miles    
Events Rain    
Averages and records for this station are not official NWS values.
T = Trace of Precipitation, MM = Missing Value Source: NWS Daily Summary

Daily Weather History Graph

Daily Weather History Graph

Search for Another Location

Airport:

Trip Planner

Search our weather history database for the weather conditions in past years. The results will help you decide how hot, cold, wet, or windy it might be!

Date:

Astronomy

May. 17, 2013 Rise Set
Actual Time 5:31 AM PDT 8:31 PM PDT
Civil Twilight 4:56 AM PDT 9:06 PM PDT
Nautical Twilight 4:11 AM PDT 9:52 PM PDT
Astronomical Twilight 3:17 AM PDT 10:46 PM PDT
Moon 12:17 PM PDT 1:18 AM PDT
Length of Visible Light 16h 10m
Length of Day
15h 00m
Waxing Crescent, 46% of the Moon is Illuminated
May 17
Waxing Crescent
May 17
First Quarter
May 24
Full
May 31
Last Quarter
Jun 8
New

Hourly Weather History & Observations

Time (PDT) Temp. Dew Point Humidity Pressure Visibility Wind Dir Wind Speed Gust Speed Precip Events Conditions
12:53 AM 55.9 °F 46.9 °F 72% 29.93 in 10.0 mi NW 12.7 mph - 0.00 in   Overcast
1:53 AM 55.0 °F 46.9 °F 74% 29.94 in 10.0 mi WNW 11.5 mph 19.6 mph 0.00 in Rain Light Rain
2:53 AM 54.0 °F 48.0 °F 80% 29.94 in 10.0 mi NW 9.2 mph - 0.01 in Rain Light Rain
3:53 AM 53.1 °F 48.0 °F 83% 29.95 in 10.0 mi NW 5.8 mph - 0.03 in Rain Light Rain
5:53 AM 52.0 °F 46.9 °F 83% 29.96 in 10.0 mi WNW 11.5 mph 25.3 mph 0.03 in Rain Light Rain
6:53 AM 53.1 °F 46.0 °F 77% 29.98 in 10.0 mi NW 15.0 mph - 0.03 in Rain Light Rain
7:53 AM 53.1 °F 45.0 °F 74% 29.99 in 10.0 mi WNW 10.4 mph - 0.00 in   Overcast
8:53 AM 54.0 °F 45.0 °F 72% 29.99 in 10.0 mi WNW 11.5 mph - N/A   Overcast
9:53 AM 57.0 °F 45.0 °F 64% 29.99 in 10.0 mi West 12.7 mph - N/A   Overcast
10:53 AM 59.0 °F 44.1 °F 58% 29.98 in 10.0 mi NW 16.1 mph 23.0 mph N/A   Overcast
12:53 PM 64.0 °F 42.1 °F 45% 29.97 in 10.0 mi WNW 13.8 mph - N/A   Overcast
1:53 PM 66.0 °F 39.0 °F 37% 29.96 in 10.0 mi WNW 18.4 mph 25.3 mph N/A   Mostly Cloudy
2:53 PM 66.0 °F 39.9 °F 38% 29.96 in 10.0 mi WNW 23.0 mph 31.1 mph N/A   Mostly Cloudy
3:53 PM 68.0 °F 39.9 °F 36% 29.94 in 10.0 mi WNW 19.6 mph 27.6 mph N/A   Clear
4:53 PM 68.0 °F 39.9 °F 36% 29.95 in 10.0 mi WNW 21.9 mph 27.6 mph N/A   Scattered Clouds
5:53 PM 66.0 °F 39.9 °F 38% 29.97 in 10.0 mi West 18.4 mph - N/A   Clear
6:53 PM 63.0 °F 41.0 °F 45% 29.98 in 10.0 mi NW 17.3 mph - N/A   Clear
7:53 PM 59.0 °F 42.1 °F 53% 30.00 in 10.0 mi WNW 10.4 mph - N/A   Clear
8:53 PM 57.0 °F 42.1 °F 57% 30.01 in 10.0 mi NW 12.7 mph - N/A   Partly Cloudy
9:53 PM 57.0 °F 43.0 °F 59% 30.03 in 10.0 mi WNW 12.7 mph - N/A   Clear
10:53 PM 57.0 °F 43.0 °F 59% 30.04 in 10.0 mi West 13.8 mph 23.0 mph N/A   Clear
11:53 PM 55.0 °F 43.0 °F 64% 30.05 in 10.0 mi WSW 8.1 mph - N/A   Partly Cloudy